[[{"header":{"parameterUnit":"m.s-1","parameterCategory":1,"la1":30.2991,"la2":30.254,"lo1":-89.0895,"lo2":-89.0444,"dy":0.0017,"dx":0.0017,"nx":28,"ny":28,"refTime":"2025-03-03T09:00:00:Z","depth":0,"parameterNumber":2,"parameterNumberName":"U-component_of_WINDS"},"data":[0,0,0,0,0,0,0,0,0,0,0,0,0,0,0,0,0,0,0,0,0,0,0,0,0,0,0,0,0,0,0,0,0,0,0,0,0,0,0,0,0,0,0,0,0,0,0,0,0,0,0,0,0,0,0,0,0,0,6.129,6.1291,0,6.1375,6.1376,6.1377,6.1313,6.131,6.1307,6.1305,6.1396,6.14,6.1405,0,0,0,0,0,0,0,0,0,0,0,0,0,6.1076,6.108,6.129,6.1291,6.1292,6.1375,6.1376,6.1378,6.1313,6.131,6.1307,6.1303,6.1394,6.14,6.1406,0,0,0,0,0,0,0,0,0,0,0,0,0,6.1166,6.1082,6.129,6.127,6.1269,6.1375,6.1376,6.1378,6.1314,6.131,6.1306,6.1302,6.1392,6.1399,6.1407,6.1538,0,0,6.143,6.1433,0,0,0,0,0,0,0,0,6.1161,6.1174,6.1272,6.1272,6.1271,6.1329,6.1334,6.1432,6.1315,6.1297,6.1305,6.13,6.1377,6.1386,6.1411,6.1542,6.1546,6.1431,6.1435,6.1438,6.144,0,0,0,0,0,0,0,6.1155,6.117,6.1324,6.1274,6.1273,6.1258,6.1267,6.1352,6.136,6.1298,6.1294,6.1305,6.1376,6.1404,6.1413,6.1547,6.143,6.1437,6.1442,6.1445,6.1791,6.1796,0,0,0,0,0,0,6.115,6.1165,6.1321,6.1326,6.1204,6.1266,6.1275,6.1315,6.1359,6.1361,6.1308,6.1301,6.1393,6.1404,6.1416,6.1572,6.1438,6.1445,6.145,6.1787,6.1792,6.1797,0,0,0,0,0,0,6.1146,6.1165,6.1318,6.1245,6.1263,6.1274,6.1319,6.1319,6.1346,6.1366,6.1367,6.1335,6.139,6.1405,6.1508,6.1575,6.1449,6.1456,6.1781,6.1788,6.1795,6.1887,0,0,0,0,0,0,6.114,6.1163,6.1212,6.1246,6.1267,6.1407,6.1323,6.1323,6.1359,6.1351,6.1392,6.1394,6.1388,6.1497,6.1515,6.1583,6.1462,6.1775,6.1784,6.1793,6.1878,6.1896,6.1911,0,0,0,0,0,6.1132,6.1235,6.1215,6.1234,6.1328,6.1411,6.1423,6.1413,6.1365,6.1414,6.1427,6.1393,6.1564,6.1508,6.1528,6.1599,6.1771,6.1782,6.1792,6.187,6.1892,6.1911,0,0,0,0,0,0,6.1209,6.1239,6.1217,6.1333,6.137,6.14,6.1462,6.1437,6.1489,6.1479,6.1465,6.1475,6.1583,6.1601,6.1538,6.1729,6.166,6.1675,6.1713,6.1734,6.175,6.1744,6.1468,0,0,0,0,0,6.1239,6.1303,6.1326,6.1427,6.1447,6.1452,6.1488,6.1476,6.1515,6.153,6.155,6.159,6.1653,6.1694,6.1753,6.188,6.1889,6.1939,6.1956,6.197,6.1983,6.2053,6.2076,6.1832,6.1832,6.1832,0,0,6.1303,6.1327,6.1368,6.1443,6.147,6.1538,6.1465,6.154,6.159,6.1542,6.164,6.1657,6.17,6.1816,6.1868,6.1834,6.2052,6.1983,6.1994,6.2,6.2066,6.2089,6.2109,6.1839,6.1838,6.1837,0,0,6.1453,6.1477,6.1564,6.1593,6.1635,6.1638,6.1659,6.1694,6.1703,6.1801,6.1766,6.1827,6.1935,6.1968,6.1998,6.2163,6.2134,6.2183,6.2271,6.2339,6.2359,6.2376,6.2435,6.2456,6.2196,6.2196,6.2196,0,6.1527,6.1626,6.1612,6.169,6.1724,6.1683,6.1772,6.1801,6.1861,6.1886,6.1847,6.1983,6.2009,6.2133,6.2173,6.2199,6.2224,6.2178,6.2357,6.2374,6.2389,6.2446,6.2468,6.2202,6.2201,6.2201,6.22,0,6.1715,6.1785,6.185,6.1908,6.195,6.2033,6.2033,6.2078,6.2064,6.2072,6.2173,6.2203,6.2268,6.2297,6.2284,6.2419,6.2397,6.2358,6.2289,6.2418,6.2471,6.2493,6.221,6.2208,6.2206,6.2205,0,0,6.1914,6.1965,6.1989,6.2015,6.2059,6.2114,6.2196,6.2258,6.2297,6.2341,6.241,6.2503,6.2467,6.2502,6.2493,6.2553,6.2683,6.2507,6.2508,6.2539,6.2835,6.2864,6.2889,6.2664,6.2668,6.2671,6.2832,0,6.2067,6.2208,6.2199,6.2332,6.2397,6.236,6.2432,6.2468,6.2478,6.2536,6.2547,6.2614,6.2561,6.2582,6.264,6.2655,6.2742,6.2643,6.273,6.2733,6.2719,6.2917,6.2947,6.3097,6.2852,6.2856,6.2858,0,6.2263,6.2312,6.2452,6.2488,6.2515,6.2579,6.2636,6.2692,6.2733,6.2736,6.2776,6.2757,6.2842,6.2771,6.2889,6.2821,6.2857,6.287,6.2875,6.2883,6.2803,6.293,6.3144,6.3167,6.2891,6.2888,6.2886,0,6.2395,6.2497,6.2593,6.2617,6.2661,6.2708,6.2728,6.2765,6.2803,6.2854,6.2879,6.294,6.2973,6.3021,6.302,6.2969,6.314,6.3068,6.3146,6.3146,6.3183,6.3181,6.3406,6.3206,6.3206,6.3205,6.3205,0,6.2566,6.2653,6.2653,6.2713,6.281,6.28,6.2897,6.2913,6.2946,6.301,6.2982,6.3042,6.3037,6.3099,6.3099,6.3197,6.3212,6.3218,6.3217,6.322,6.322,6.3243,6.3232,6.3211,6.321,6.3209,6.3208,0,6.2729,6.2733,6.2836,6.287,6.288,6.295,6.298,6.3037,6.3045,6.3126,6.3145,6.3158,6.3229,6.3233,6.3315,6.3315,6.3434,6.3422,6.342,6.3418,6.3495,6.3488,6.3743,6.3777,6.3555,6.3557,6.3559,0,6.2837,6.2903,6.2944,6.2984,6.3008,6.3073,6.3112,6.3106,6.3148,6.32,6.3252,6.332,6.3375,6.3491,6.3509,6.3572,6.3561,6.3646,6.357,6.3572,6.3563,6.3559,6.3566,6.3661,6.3663,6.3665,6.3667,0,6.303,6.3029,6.3086,6.3145,6.3192,6.3239,6.3281,6.3316,6.3315,6.3364,6.3436,6.3479,6.3563,6.3632,6.3694,6.3717,6.3693,6.3691,6.3712,6.3716,6.3713,6.3716,6.3461,6.3685,6.3683,6.3682,6.3681,6.368,6.3169,6.3227,6.3265,6.333,6.3361,6.3403,6.3458,6.3474,6.3533,6.3601,6.3594,6.3674,6.3715,6.3796,6.3824,6.3888,6.3859,6.389,6.3898,6.3905,6.3914,6.3703,6.39,6.3899,6.3899,6.3898,6.3898,0,6.336,6.3383,6.3443,6.3504,6.3556,6.3528,6.3575,6.362,6.3691,6.3731,6.3785,6.3869,6.3936,6.396,6.4026,6.4072,6.4063,6.409,6.4086,6.4092,6.3936,6.3911,6.4096,6.4096,6.4096,6.4096,6.4096,6.4096,6.3466,6.3562,6.3566,6.3678,6.3701,6.3779,6.3808,6.3846,6.3878,6.3973,6.4028,6.4043,6.4077,6.4145,6.4206,6.4212,6.4237,6.4269,6.427,6.4123,6.4103,6.4084,6.4061,6.4275,6.4275,6.4421,6.4423,6.4424]},{"header":{"parameterUnit":"m.s-1","parameterCategory":1,"la1":30.2991,"la2":30.254,"lo1":-89.0895,"lo2":-89.0444,"dy":0.0017,"dx":0.0017,"nx":28,"ny":28,"refTime":"2025-03-03T09:00:00:Z","depth":0,"parameterNumber":3,"parameterNumberName":"V-component_of_WINDS"},"data":[0,0,0,0,0,0,0,0,0,0,0,0,0,0,0,0,0,0,0,0,0,0,0,0,0,0,0,0,0,0,0,0,0,0,0,0,0,0,0,0,0,0,0,0,0,0,0,0,0,0,0,0,0,0,0,0,0,0,4.0396,4.0398,0,4.0565,4.0567,4.0569,4.058,4.0579,4.0577,4.0575,4.0747,4.0753,4.076,0,0,0,0,0,0,0,0,0,0,0,0,0,4.0083,4.0089,4.0396,4.0398,4.04,4.0565,4.0567,4.057,4.0581,4.0579,4.0576,4.0574,4.0745,4.0753,4.076,0,0,0,0,0,0,0,0,0,0,0,0,0,4.0232,4.009,4.0396,4.0426,4.043,4.0564,4.0567,4.057,4.0581,4.0578,4.0576,4.0573,4.0743,4.0752,4.0761,4.0877,0,0,4.079,4.0794,0,0,0,0,0,0,0,0,4.0224,4.0244,4.0419,4.0424,4.0429,4.0549,4.052,4.0673,4.0582,4.0524,4.0575,4.0572,4.0683,4.0698,4.0736,4.0885,4.0892,4.0791,4.0797,4.0801,4.0804,0,0,0,0,0,0,0,4.0213,4.0236,4.0463,4.0422,4.0428,4.0431,4.0449,4.0549,4.0617,4.0529,4.053,4.055,4.0686,4.0726,4.074,4.0895,4.0791,4.0799,4.0805,4.0809,4.1149,4.1153,0,0,0,0,0,0,4.0197,4.0228,4.0458,4.0468,4.0317,4.0439,4.0459,4.0513,4.0616,4.0629,4.0552,4.055,4.0711,4.0729,4.0746,4.089,4.0801,4.081,4.0815,4.1146,4.115,4.1154,0,0,0,0,0,0,4.019,4.0218,4.0451,4.0348,4.0378,4.0447,4.0508,4.0518,4.0559,4.0634,4.0646,4.0581,4.071,4.0732,4.0845,4.0896,4.0814,4.0823,4.1142,4.1147,4.1152,4.1177,0,0,0,0,0,0,4.0181,4.0215,4.026,4.0349,4.0384,4.0547,4.0511,4.0523,4.0575,4.0574,4.0665,4.0677,4.0709,4.083,4.0854,4.0907,4.083,4.1138,4.1145,4.115,4.1172,4.1182,4.1191,0,0,0,0,0,4.017,4.0259,4.0262,4.029,4.0441,4.055,4.057,4.0605,4.0579,4.0625,4.0674,4.0674,4.0886,4.0842,4.0869,4.0926,4.1135,4.1143,4.115,4.1168,4.118,4.1191,0,0,0,0,0,0,4.0173,4.0272,4.0275,4.0396,4.0465,4.0552,4.061,4.0617,4.0694,4.0689,4.073,4.0751,4.0862,4.0905,4.0854,4.1044,4.1008,4.1021,4.1012,4.1025,4.1034,4.1022,4.0838,0,0,0,0,0,4.0188,4.0269,4.035,4.0449,4.0483,4.0541,4.0589,4.0611,4.0684,4.0712,4.0769,4.0839,4.0922,4.0975,4.1055,4.1178,4.1199,4.123,4.124,4.1247,4.1259,4.1329,4.1344,4.1178,4.1178,4.1178,0,0,4.022,4.0283,4.0331,4.0451,4.0507,4.059,4.0565,4.0653,4.0715,4.0726,4.0836,4.088,4.0961,4.1079,4.1134,4.1118,4.1309,4.1257,4.1262,4.127,4.1338,4.1353,4.1367,4.1183,4.1183,4.1182,0,0,4.032,4.0375,4.0465,4.0521,4.0606,4.0644,4.0665,4.0752,4.0782,4.0893,4.0903,4.0977,4.1118,4.1176,4.1224,4.1347,4.1351,4.1371,4.1422,4.1489,4.1503,4.1514,4.156,4.1576,4.1382,4.1382,4.1382,0,4.0348,4.0473,4.0509,4.0599,4.0651,4.0665,4.0757,4.0809,4.0916,4.0952,4.0933,4.1111,4.1166,4.1299,4.133,4.1367,4.1394,4.1362,4.1498,4.151,4.1522,4.1566,4.1582,4.1384,4.1384,4.1384,4.1384,0,4.0505,4.0592,4.0654,4.0757,4.0817,4.0906,4.0957,4.1013,4.1029,4.1069,4.1183,4.125,4.1345,4.1377,4.1394,4.1514,4.1501,4.1489,4.1454,4.1539,4.1581,4.1598,4.1387,4.1387,4.1386,4.1385,0,0,4.0612,4.0735,4.0757,4.0805,4.09,4.0968,4.1059,4.1152,4.12,4.1273,4.1351,4.147,4.146,4.1514,4.1537,4.1596,4.1692,4.1578,4.158,4.1598,4.183,4.184,4.1859,4.1695,4.1698,4.17,4.1824,0,4.0724,4.0886,4.0922,4.1061,4.1143,4.1158,4.1237,4.1304,4.1344,4.1419,4.1462,4.1547,4.1527,4.156,4.1619,4.1668,4.1739,4.1659,4.1768,4.1772,4.1749,4.1881,4.1891,4.2004,4.184,4.1843,4.1845,0,4.0876,4.0954,4.1102,4.1188,4.1224,4.1294,4.1383,4.1454,4.1531,4.1556,4.1617,4.1635,4.173,4.1689,4.1821,4.1766,4.1812,4.1843,4.1848,4.1861,4.1815,4.1899,4.2041,4.2059,4.1871,4.1869,4.1867,0,4.0941,4.1083,4.1191,4.1231,4.1333,4.1383,4.1428,4.1502,4.1556,4.1634,4.167,4.1757,4.1805,4.1872,4.1913,4.1879,4.2043,4.2004,4.2067,4.2066,4.2102,4.21,4.2256,4.2129,4.2129,4.2128,4.2128,0,4.1064,4.1154,4.1222,4.1288,4.139,4.1431,4.1531,4.1575,4.1641,4.1717,4.1734,4.1804,4.1853,4.193,4.1962,4.2068,4.2089,4.2113,4.2121,4.2112,4.211,4.2145,4.2139,4.2133,4.2132,4.2131,4.213,0,4.1155,4.1203,4.1322,4.141,4.1434,4.1506,4.1581,4.1646,4.1686,4.1782,4.1806,4.187,4.1962,4.2009,4.2123,4.2145,4.2265,4.2267,4.224,4.2243,4.2304,4.2298,4.2489,4.2517,4.237,4.2371,4.2372,0,4.123,4.13,4.1396,4.1449,4.1495,4.1578,4.1635,4.1677,4.1734,4.1828,4.1882,4.1975,4.2052,4.2199,4.2255,4.2343,4.2349,4.241,4.2362,4.2352,4.2352,4.2348,4.2356,4.2418,4.242,4.2421,4.2422,0,4.136,4.1381,4.1461,4.1551,4.1617,4.1689,4.176,4.1802,4.1856,4.192,4.2015,4.2075,4.2193,4.2286,4.2378,4.2424,4.2433,4.2436,4.2456,4.2449,4.2431,4.2444,4.2265,4.2432,4.2431,4.243,4.243,4.2429,4.1447,4.1511,4.1589,4.1678,4.1736,4.1803,4.1869,4.1918,4.1999,4.2099,4.2118,4.222,4.2295,4.2421,4.247,4.255,4.2537,4.2564,4.2572,4.2578,4.2582,4.2417,4.2566,4.2566,4.2566,4.2566,4.2565,0,4.1579,4.163,4.1712,4.1812,4.1883,4.1885,4.1964,4.2023,4.2112,4.2182,4.2258,4.2368,4.2459,4.2522,4.2614,4.2666,4.2673,4.2689,4.2687,4.2698,4.2588,4.2563,4.2683,4.2683,4.2683,4.2683,4.2682,4.2682,4.1656,4.1765,4.1796,4.1934,4.1985,4.2085,4.213,4.2192,4.2249,4.2371,4.2447,4.2488,4.2556,4.2654,4.2737,4.2753,4.2787,4.2804,4.2821,4.2717,4.2705,4.2693,4.267,4.2811,4.2811,4.2924,4.2925,4.2926]}]]